Shelbyville, IN

1:38 PM EST on December 08, 2019 (GMT -0500)
Shelbyville Municipal

Weather History for KGEZ - October, 2019

Change the Weather History Date:

Monday, October 28, 2019

  Actual Average Record
Temperature  
Mean Temperature 54 °F 50 °F  
Max Temperature 68 °F 62 °F 79 °F (1999)
Min Temperature 39 °F 40 °F 25 °F (2001)
Degree Days  
Heating Degree Days 11 15  
Month to date heating degree days 225 306  
Since 1 July heating degree days 228 391  
Cooling Degree Days 0 0  
Month to date cooling degree days 36 11  
Year to date cooling degree days 1330 910  
Growing Degree Days 2 (Base 50)    
Moisture  
Dew Point 44 °F    
Average Humidity 73    
Maximum Humidity 93    
Minimum Humidity 52    
Precipitation  
Precipitation 0.00 in 0.10 in 1.12 in (2015)
Month to date precipitation 3.77 2.86  
Year to date precipitation 35.98 36.31  
Sea Level Pressure  
Sea Level Pressure 30.07 in    
Wind  
Wind Speed 5 mph (South)    
Max Wind Speed 15 mph    
Max Gust Speed 20 mph    
Visibility 9 miles    
Events      
T = Trace of Precipitation, MM = Missing Value Source: NWS Daily Summary

Daily Weather History Graph

Daily Weather History Graph

Search for Another Location

Airport or City:

Astronomy

Oct. 28, 2019 Rise Set
Actual Time 8:06 AM EDT 6:46 PM EDT
Civil Twilight 7:39 AM EDT 7:14 PM EDT
Nautical Twilight 7:07 AM EDT 7:45 PM EDT
Astronomical Twilight 6:36 AM EDT 8:17 PM EDT
Moon 8:27 AM EDT (10/28) 7:31 PM EDT (10/28)
Length of Visible Light 11h 35m
Length of Day
10h 39m
New Moon, 0% of the Moon is Illuminated
Oct 28
New Moon
Nov 4
First Quarter
Nov 12
Full
Nov 19
Last Quarter
Nov 26
New

Hourly Weather History & Observations

Time (EDT) Temp. Windchill Dew Point Humidity Pressure Visibility Wind Dir Wind Speed Gust Speed Precip Events Conditions
12:53 AM 42.1 °F 40.2 °F 39.9 °F 92% 30.06 in 10.0 mi SSE 3.5 mph - N/A   Clear
1:53 AM 42.1 °F 40.2 °F 39.0 °F 89% 30.06 in 10.0 mi ESE 3.5 mph - N/A   Clear
2:53 AM 41.0 °F - 39.0 °F 93% 30.07 in 9.0 mi Calm Calm - N/A   Clear
3:53 AM 39.9 °F 37.8 °F 37.0 °F 89% 30.08 in 8.0 mi SSE 3.5 mph - N/A   Clear
4:53 AM 39.9 °F - 37.9 °F 93% 30.08 in 7.0 mi Calm Calm - N/A   Clear
5:53 AM 39.0 °F 36.8 °F 37.0 °F 93% 30.08 in 8.0 mi SE 3.5 mph - N/A   Clear
6:53 AM 39.0 °F - 37.0 °F 93% 30.09 in 5.0 mi Calm Calm - N/A   Clear
7:53 AM 39.0 °F 36.8 °F 37.0 °F 93% 30.10 in 6.0 mi ESE 3.5 mph - N/A   Clear
8:53 AM 43.0 °F 41.3 °F 39.9 °F 89% 30.11 in 6.0 mi ESE 3.5 mph - N/A   Clear
9:53 AM 51.1 °F - 45.0 °F 80% 30.12 in 10.0 mi SSE 4.6 mph - N/A   Clear
10:53 AM 57.0 °F - 46.9 °F 69% 30.11 in 10.0 mi South 5.8 mph - N/A   Clear
11:53 AM 61.0 °F - 48.0 °F 62% 30.10 in 10.0 mi South 9.2 mph - N/A   Clear
12:53 PM 64.0 °F - 48.9 °F 58% 30.08 in 10.0 mi South 9.2 mph - N/A   Clear
1:53 PM 64.9 °F - 48.9 °F 56% 30.05 in 10.0 mi South 8.1 mph - N/A   Mostly Cloudy
2:53 PM 66.0 °F - 48.9 °F 54% 30.04 in 10.0 mi South 12.7 mph - N/A   Scattered Clouds
3:53 PM 64.9 °F - 48.0 °F 54% 30.03 in 10.0 mi SSW 8.1 mph - N/A   Scattered Clouds
4:53 PM 63.0 °F - 50.0 °F 63% 30.04 in 10.0 mi SSW 5.8 mph - N/A   Clear
5:53 PM 63.0 °F - 50.0 °F 63% 30.04 in 10.0 mi WSW 5.8 mph - N/A   Clear
6:53 PM 57.9 °F - 50.0 °F 75% 30.05 in 10.0 mi West 8.1 mph - N/A   Clear
7:53 PM 54.0 °F - 48.9 °F 83% 30.06 in 10.0 mi West 4.6 mph - N/A   Clear
8:53 PM 51.1 °F - 48.0 °F 89% 30.06 in 10.0 mi WSW 3.5 mph - N/A   Clear
9:53 PM 46.9 °F - 44.1 °F 90% 30.06 in 7.0 mi Calm Calm - N/A   Partly Cloudy
10:07 PM 48.0 °F - 45.0 °F 89% 30.05 in 5.0 mi Calm Calm - N/A   Mostly Cloudy
10:53 PM 51.1 °F - 48.0 °F 89% 30.06 in 7.0 mi Calm Calm - N/A   Overcast
11:53 PM 48.9 °F - 46.9 °F 93% 30.05 in 6.0 mi SE 4.6 mph - N/A   Overcast